| time (UTC) | temp C | wind direction | speed KPH | gust KPH | rain 1hr cm | rain 24hr cm | rain mn cm | humidity % | barometer mb |
| 20260503010227 | 10 | 332 | 1.6 | 3.2 | 0.00 | 1.35 | 1.35 | 98 | 1011.7 |
| 20260503010114 | 10 | 332 | 1.6 | 3.2 | 0.00 | 1.35 | 1.35 | 98 | 1011.7 |
| 20260503005507 | 10 | 328 | 1.6 | 3.2 | 0.00 | 1.35 | 1.35 | 98 | 1011.7 |
| 20260503005010 | 10 | 349 | 1.6 | 3.2 | 0.00 | 1.35 | 1.35 | 98 | 1011.7 |
| 20260503004508 | 10 | 348 | 1.6 | 3.2 | 0.00 | 1.35 | 1.35 | 98 | 1011.6 |
| 20260503004009 | 10 | 345 | 1.6 | 3.2 | 0.00 | 1.35 | 1.35 | 98 | 1011.6 |
| 20260503003508 | 10 | 335 | 1.6 | 3.2 | 0.00 | 1.35 | 1.35 | 98 | 1011.6 |
| 20260503003229 | 10 | 346 | 1.6 | 3.2 | 0.00 | 1.35 | 1.35 | 97 | 1011.4 |
| 20260503003111 | 10 | 346 | 1.6 | 3.2 | 0.00 | 1.35 | 1.35 | 97 | 1011.4 |
| 20260503002712 | 10 | 351 | 1.6 | 3.2 | 0.00 | 1.35 | 1.35 | 97 | 1011.4 |
| 20260503002556 | 10 | 351 | 1.6 | 3.2 | 0.00 | 1.35 | 1.35 | 97 | 1011.4 |
| 20260503001953 | 10 | 342 | 1.6 | 3.2 | 0.00 | 1.35 | 1.35 | 97 | 1011.4 |
| 20260503001451 | 10 | 342 | 1.6 | 3.2 | 0.00 | 1.35 | 1.35 | 97 | 1011.3 |
| 20260503001217 | 11 | 0 | 1.6 | 3.2 | 0.00 | 1.35 | 1.35 | 97 | 1011.2 |
| 20260503001058 | 11 | 0 | 1.6 | 3.2 | 0.00 | 1.35 | 1.35 | 97 | 1011.2 |
| 20260503000451 | 11 | 331 | 1.6 | 3.2 | 0.00 | 1.35 | 1.35 | 96 | 1011.2 |
| 20260502235955 | 11 | 279 | 1.6 | 3.2 | 0.00 | 1.35 | 1.35 | 96 | 1011.1 |
| 20260502235452 | 11 | 315 | 1.6 | 3.2 | 0.00 | 1.35 | 1.35 | 96 | 1011.1 |
| 20260502234953 | 11 | 355 | 1.6 | 3.2 | 0.00 | 1.35 | 1.35 | 96 | 1011.0 |
| 20260502234437 | 11 | 328 | 1.6 | 3.2 | 0.00 | 1.35 | 1.35 | 96 | 1011.1 |
| 20260502233939 | 11 | 355 | 1.6 | 3.2 | 0.00 | 1.35 | 1.35 | 95 | 1011.1 |
| 20260502233438 | 11 | 353 | 1.6 | 3.2 | 0.00 | 1.35 | 1.35 | 95 | 1011.0 |
| 20260502232937 | 11 | 17 | 1.6 | 3.2 | 0.00 | 1.35 | 1.35 | 95 | 1010.9 |
| 20260502232439 | 11 | 25 | 1.6 | 3.2 | 0.00 | 1.35 | 1.35 | 95 | 1010.9 |
| 20260502231941 | 11 | 0 | 1.6 | 3.2 | 0.00 | 1.35 | 1.35 | 95 | 1010.9 |
| 20260502231423 | 11 | 24 | 1.6 | 3.2 | 0.00 | 1.35 | 1.35 | 95 | 1010.9 |
| 20260502230924 | 11 | 348 | 1.6 | 3.2 | 0.00 | 1.35 | 1.35 | 95 | 1010.9 |
| 20260502230423 | 11 | 284 | 1.6 | 3.2 | 0.00 | 1.35 | 1.35 | 95 | 1010.9 |
| 20260502225923 | 11 | 25 | 1.6 | 3.2 | 0.00 | 1.35 | 1.35 | 95 | 1010.9 |
| 20260502225423 | 11 | 355 | 1.6 | 1.6 | 0.00 | 1.35 | 1.35 | 95 | 1010.9 |
| 20260502224924 | 11 | 343 | 0.0 | 1.6 | 0.00 | 1.35 | 1.35 | 95 | 1010.9 |
| 20260502224423 | 11 | 0 | 0.0 | 1.6 | 0.00 | 1.35 | 1.35 | 94 | 1010.8 |
| 20260502223923 | 11 | 346 | 0.0 | 1.6 | 0.00 | 1.35 | 1.35 | 94 | 1010.8 |
| 20260502223423 | 11 | 0 | 1.6 | 1.6 | 0.00 | 1.35 | 1.35 | 94 | 1010.8 |
| 20260502222907 | 11 | 323 | 1.6 | 3.2 | 0.00 | 1.35 | 1.35 | 93 | 1010.8 |
| 20260502222850 | 11 | 344 | 1.6 | 3.2 | 0.00 | 1.35 | 1.35 | 93 | 1010.7 |
| 20260502222513 | 11 | 344 | 1.6 | 3.2 | 0.00 | 1.35 | 1.35 | 93 | 1010.7 |
| 20260502221907 | 11 | 21 | 1.6 | 4.8 | 0.00 | 1.35 | 1.35 | 92 | 1010.7 |
| 20260502221411 | 11 | 106 | 3.2 | 4.8 | 0.00 | 1.35 | 1.35 | 92 | 1010.7 |
| 20260502220910 | 11 | 64 | 1.6 | 4.8 | 0.00 | 1.35 | 1.35 | 93 | 1010.6 |
| 20260502220640 | 11 | 347 | 1.6 | 3.2 | 0.00 | 1.35 | 1.35 | 93 | 1010.6 |
| 20260502220515 | 11 | 347 | 1.6 | 3.2 | 0.00 | 1.35 | 1.35 | 93 | 1010.6 |
| 20260502215911 | 11 | 353 | 1.6 | 3.2 | 0.00 | 1.35 | 1.35 | 95 | 1010.7 |
| 20260502215412 | 11 | 16 | 1.6 | 6.4 | 0.03 | 1.35 | 1.35 | 94 | 1010.5 |
| 20260502214910 | 11 | 79 | 3.2 | 6.4 | 0.03 | 1.35 | 1.35 | 94 | 1010.5 |
| 20260502214408 | 11 | 4 | 3.2 | 4.8 | 0.03 | 1.35 | 1.35 | 94 | 1010.6 |
| 20260502213908 | 11 | 8 | 3.2 | 4.8 | 0.03 | 1.35 | 1.35 | 93 | 1010.6 |
| 20260502213408 | 11 | 83 | 3.2 | 4.8 | 0.03 | 1.35 | 1.35 | 93 | 1010.6 |
| 20260502212908 | 11 | 145 | 3.2 | 4.8 | 0.05 | 1.35 | 1.35 | 94 | 1010.7 |
| 20260502212408 | 11 | 70 | 3.2 | 9.7 | 0.05 | 1.35 | 1.35 | 93 | 1010.7 |
| 20260502211902 | 11 | 50 | 3.2 | 9.7 | 0.05 | 1.35 | 1.35 | 93 | 1010.6 |
| 20260502211358 | 11 | 122 | 3.2 | 8.0 | 0.05 | 1.35 | 1.35 | 93 | 1010.7 |
| 20260502211119 | 11 | 81 | 1.6 | 4.8 | 0.05 | 1.35 | 1.35 | 94 | 1010.6 |
| 20260502211003 | 11 | 81 | 1.6 | 4.8 | 0.05 | 1.35 | 1.35 | 94 | 1010.6 |
| 20260502210358 | 11 | 53 | 3.2 | 4.8 | 0.05 | 1.35 | 1.35 | 94 | 1010.6 |
| 20260502205859 | 11 | 36 | 1.6 | 3.2 | 0.03 | 1.35 | 1.35 | 94 | 1010.7 |
| 20260502205358 | 11 | 42 | 1.6 | 4.8 | 0.03 | 1.32 | 1.32 | 94 | 1010.6 |
| 20260502204859 | 11 | 21 | 3.2 | 8.0 | 0.03 | 1.32 | 1.32 | 94 | 1010.7 |
| 20260502204604 | 11 | 32 | 3.2 | 8.0 | 0.03 | 1.32 | 1.32 | 94 | 1010.6 |
| 20260502204448 | 11 | 32 | 3.2 | 8.0 | 0.03 | 1.32 | 1.32 | 94 | 1010.6 |
| 20260502203840 | 11 | 6 | 3.2 | 6.4 | 0.03 | 1.32 | 1.32 | 94 | 1010.7 |
| 20260502203341 | 11 | 80 | 3.2 | 4.8 | 0.03 | 1.32 | 1.32 | 93 | 1010.7 |
| 20260502203333 | 11 | 119 | 3.2 | 4.8 | 0.03 | 1.32 | 1.32 | 93 | 1010.7 |
| 20260502202945 | 11 | 119 | 3.2 | 4.8 | 0.03 | 1.32 | 1.32 | 93 | 1010.7 |
| 20260502202603 | 11 | 141 | 3.2 | 4.8 | 0.03 | 1.32 | 1.32 | 93 | 1010.6 |
| 20260502202446 | 11 | 141 | 3.2 | 4.8 | 0.03 | 1.32 | 1.32 | 93 | 1010.6 |
| 20260502201841 | 11 | 53 | 3.2 | 4.8 | 0.03 | 1.32 | 1.32 | 93 | 1010.6 |
| 20260502201610 | 11 | 248 | 1.6 | 4.8 | 0.03 | 1.32 | 1.32 | 94 | 1010.7 |
| 20260502201341 | 11 | 248 | 1.6 | 4.8 | 0.03 | 1.32 | 1.32 | 94 | 1010.7 |
| 20260502201104 | 11 | 37 | 3.2 | 4.8 | 0.03 | 1.32 | 1.32 | 94 | 1010.7 |
| 20260502200946 | 11 | 37 | 3.2 | 4.8 | 0.03 | 1.32 | 1.32 | 94 | 1010.7 |
| 20260502200341 | 11 | 52 | 3.2 | 4.8 | 0.03 | 1.32 | 1.32 | 95 | 1010.8 |
| 20260502200110 | 11 | 34 | 3.2 | 4.8 | 0.05 | 1.32 | 1.32 | 95 | 1010.9 |
| 20260502195842 | 11 | 63 | 3.2 | 4.8 | 0.03 | 1.32 | 1.32 | 95 | 1010.8 |
| 20260502195445 | 11 | 34 | 3.2 | 4.8 | 0.05 | 1.32 | 1.32 | 95 | 1010.9 |
| 20260502194841 | 11 | 52 | 3.2 | 6.4 | 0.05 | 1.32 | 1.32 | 95 | 1010.9 |
| 20260502194342 | 11 | 54 | 3.2 | 6.4 | 0.05 | 1.32 | 1.32 | 95 | 1010.9 |
| 20260502193829 | 11 | 3 | 3.2 | 6.4 | 0.05 | 1.30 | 1.30 | 95 | 1010.9 |
| 20260502193330 | 11 | 340 | 3.2 | 6.4 | 0.05 | 1.30 | 1.30 | 96 | 1011.0 |
| 20260502192829 | 11 | 269 | 3.2 | 6.4 | 0.05 | 1.30 | 1.30 | 96 | 1011.1 |
| 20260502192313 | 11 | 356 | 3.2 | 6.4 | 0.05 | 1.30 | 1.30 | 96 | 1011.2 |
| 20260502192041 | 11 | 20 | 3.2 | 4.8 | 0.05 | 1.30 | 1.30 | 96 | 1011.3 |
| 20260502191812 | 11 | 20 | 3.2 | 4.8 | 0.05 | 1.30 | 1.30 | 96 | 1011.3 |
| 20260502191322 | 11 | 18 | 3.2 | 4.8 | 0.05 | 1.27 | 1.27 | 96 | 1011.2 |
| 20260502191313 | 11 | 84 | 3.2 | 4.8 | 0.05 | 1.27 | 1.27 | 96 | 1011.3 |
| 20260502190813 | 11 | 18 | 3.2 | 4.8 | 0.05 | 1.27 | 1.27 | 96 | 1011.2 |
| 20260502190313 | 11 | 253 | 1.6 | 3.2 | 0.05 | 1.27 | 1.27 | 96 | 1011.3 |
| 20260502190037 | 11 | 242 | 1.6 | 3.2 | 0.05 | 1.27 | 1.27 | 96 | 1011.3 |
| 20260502185924 | 11 | 242 | 1.6 | 3.2 | 0.05 | 1.27 | 1.27 | 96 | 1011.3 |
| 20260502185257 | 11 | 82 | 3.2 | 3.2 | 0.05 | 1.27 | 1.27 | 96 | 1011.3 |
| 20260502184759 | 11 | 129 | 3.2 | 3.2 | 0.05 | 1.27 | 1.27 | 96 | 1011.2 |
| 20260502184242 | 11 | 62 | 3.2 | 3.2 | 0.08 | 1.27 | 1.27 | 96 | 1011.2 |
| 20260502183744 | 11 | 104 | 3.2 | 3.2 | 0.08 | 1.27 | 1.27 | 96 | 1011.3 |
| 20260502183243 | 11 | 74 | 3.2 | 3.2 | 0.05 | 1.27 | 1.24 | 96 | 1011.2 |
| 20260502182743 | 11 | 64 | 3.2 | 4.8 | 0.08 | 1.30 | 1.24 | 95 | 1011.3 |
| 20260502182244 | 11 | 80 | 3.2 | 6.4 | 0.08 | 1.30 | 1.24 | 96 | 1011.8 |
| 20260502181743 | 11 | 78 | 3.2 | 6.4 | 0.05 | 1.27 | 1.24 | 96 | 1011.7 |
| 20260502181243 | 11 | 48 | 3.2 | 16.1 | 0.05 | 1.27 | 1.22 | 96 | 1011.5 |
| 20260502180739 | 11 | 87 | 3.2 | 17.7 | 0.05 | 1.27 | 1.22 | 96 | 1011.5 |
| 20260502180239 | 11 | 92 | 4.8 | 17.7 | 0.05 | 1.27 | 1.22 | 96 | 1011.4 |
| 20260502170203 | 11 | 343 | 3.2 | 9.7 | 0.18 | 1.22 | 1.17 | 97 | 1011.6 |
| 20260502164129 | 11 | 30 | 3.2 | 6.4 | 0.18 | 1.19 | 1.12 | 98 | 1012.4 |
| 20260502163615 | 11 | 63 | 3.2 | 6.4 | 0.18 | 1.17 | 1.12 | 98 | 1012.5 |
| 20260502163115 | 11 | 35 | 3.2 | 6.4 | 0.15 | 1.17 | 1.09 | 97 | 1012.5 |
| 20260502162614 | 11 | 61 | 3.2 | 6.4 | 0.15 | 1.14 | 1.09 | 97 | 1012.6 |
| 20260502162113 | 11 | 74 | 1.6 | 3.2 | 0.13 | 1.12 | 1.07 | 98 | 1012.8 |
| 20260502161616 | 11 | 4 | 1.6 | 3.2 | 0.13 | 1.09 | 1.04 | 98 | 1012.8 |
| 20260502161113 | 11 | 352 | 1.6 | 3.2 | 0.10 | 1.09 | 1.02 | 97 | 1012.7 |
| 20260502160617 | 11 | 0 | 1.6 | 3.2 | 0.10 | 1.07 | 0.99 | 98 | 1012.8 |
| 20260502160119 | 11 | 330 | 1.6 | 3.2 | 0.10 | 1.04 | 0.99 | 98 | 1012.8 |
| 20260502152207 | 11 | 331 | 1.6 | 3.2 | 0.23 | 0.99 | 0.94 | 98 | 1012.3 |
| 20260502151600 | 11 | 19 | 1.6 | 3.2 | 0.23 | 0.99 | 0.91 | 98 | 1012.4 |
| 20260502151046 | 11 | 343 | 1.6 | 3.2 | 0.23 | 0.97 | 0.89 | 98 | 1012.5 |
| 20260502150546 | 11 | 110 | 1.6 | 4.8 | 0.23 | 0.94 | 0.89 | 98 | 1012.6 |
| 20260502140121 | 11 | 119 | 3.2 | 6.4 | 0.08 | 0.71 | 0.64 | 98 | 1011.7 |
| 20260502130503 | 11 | 321 | 3.2 | 4.8 | 0.15 | 0.66 | 0.56 | 98 | 1011.3 |
| 20260502123455 | 11 | 318 | 4.8 | 9.7 | 0.18 | 0.61 | 0.51 | 97 | 1011.0 |
| 20260502122954 | 11 | 338 | 3.2 | 4.8 | 0.18 | 0.58 | 0.51 | 97 | 1011.0 |
| 20260502122450 | 11 | 327 | 4.8 | 11.3 | 0.20 | 0.56 | 0.48 | 97 | 1010.9 |
| 20260502121938 | 11 | 327 | 6.4 | 11.3 | 0.23 | 0.56 | 0.48 | 97 | 1010.9 |
| 20260502121436 | 11 | 344 | 4.8 | 8.0 | 0.23 | 0.53 | 0.46 | 97 | 1010.8 |
| 20260502121408 | 11 | 343 | 3.2 | 4.8 | 0.25 | 0.53 | 0.46 | 97 | 1010.8 |
| 20260502121027 | 11 | 343 | 3.2 | 4.8 | 0.25 | 0.53 | 0.46 | 97 | 1010.8 |
| 20260502120420 | 11 | 25 | 3.2 | 4.8 | 0.28 | 0.51 | 0.43 | 97 | 1010.7 |
| 20260502115922 | 11 | 0 | 3.2 | 4.8 | 0.28 | 0.51 | 0.43 | 97 | 1010.8 |
| 20260502115421 | 11 | 14 | 3.2 | 4.8 | 0.28 | 0.48 | 0.41 | 97 | 1010.8 |
| 20260502114919 | 11 | 14 | 3.2 | 4.8 | 0.30 | 0.48 | 0.41 | 97 | 1010.8 |
| 20260502114637 | 11 | 1 | 4.8 | 11.3 | 0.30 | 0.46 | 0.38 | 97 | 1010.8 |
| 20260502114521 | 11 | 1 | 4.8 | 11.3 | 0.30 | 0.46 | 0.38 | 97 | 1010.8 |
| 20260502113909 | 11 | 8 | 4.8 | 11.3 | 0.28 | 0.43 | 0.36 | 97 | 1010.9 |
| 20260502113624 | 11 | 351 | 3.2 | 8.0 | 0.28 | 0.43 | 0.33 | 97 | 1011.0 |
| 20260502113512 | 11 | 351 | 3.2 | 8.0 | 0.28 | 0.43 | 0.33 | 97 | 1011.0 |
| 20260502112905 | 11 | 316 | 3.2 | 6.4 | 0.28 | 0.38 | 0.30 | 97 | 1011.1 |
| 20260502112405 | 11 | 354 | 3.2 | 6.4 | 0.23 | 0.36 | 0.28 | 97 | 1011.2 |
| 20260502112109 | 11 | 264 | 3.2 | 6.4 | 0.23 | 0.33 | 0.23 | 97 | 1011.1 |
| 20260502111956 | 11 | 264 | 3.2 | 6.4 | 0.23 | 0.33 | 0.23 | 97 | 1011.1 |
| 20260502111352 | 11 | 320 | 4.8 | 6.4 | 0.20 | 0.28 | 0.20 | 97 | 1011.1 |
| 20260502111106 | 11 | 294 | 4.8 | 6.4 | 0.18 | 0.25 | 0.18 | 97 | 1011.0 |
| 20260502110954 | 11 | 294 | 4.8 | 6.4 | 0.18 | 0.25 | 0.18 | 97 | 1011.0 |
| 20260502110351 | 11 | 288 | 4.8 | 8.0 | 0.15 | 0.23 | 0.15 | 96 | 1011.0 |
| 20260502105850 | 11 | 292 | 4.8 | 8.0 | 0.15 | 0.23 | 0.15 | 96 | 1011.0 |
| 20260502105350 | 11 | 292 | 4.8 | 6.4 | 0.13 | 0.20 | 0.13 | 96 | 1011.0 |
| 20260502104850 | 11 | 284 | 4.8 | 6.4 | 0.10 | 0.18 | 0.10 | 96 | 1011.0 |
| 20260502104350 | 11 | 310 | 3.2 | 4.8 | 0.08 | 0.15 | 0.08 | 96 | 1011.0 |
| 20260502103850 | 11 | 326 | 1.6 | 3.2 | 0.08 | 0.15 | 0.08 | 95 | 1010.9 |
| 20260502103350 | 11 | 324 | 1.6 | 3.2 | 0.05 | 0.13 | 0.05 | 95 | 1010.9 |
| 20260502102850 | 11 | 319 | 1.6 | 3.2 | 0.05 | 0.13 | 0.05 | 95 | 1010.9 |
| 20260502102350 | 11 | 319 | 1.6 | 3.2 | 0.03 | 0.10 | 0.03 | 94 | 1010.9 |
| 20260502102336 | 11 | 331 | 1.6 | 3.2 | 0.03 | 0.10 | 0.03 | 94 | 1010.9 |
| 20260502101955 | 11 | 331 | 1.6 | 3.2 | 0.03 | 0.10 | 0.03 | 94 | 1010.9 |
| 20260502101554 | 11 | 308 | 1.6 | 3.2 | 0.00 | 0.10 | 0.00 | 94 | 1011.0 |
| 20260502101440 | 11 | 308 | 1.6 | 3.2 | 0.00 | 0.10 | 0.00 | 94 | 1011.0 |
| 20260502100836 | 11 | 299 | 1.6 | 3.2 | 0.00 | 0.10 | 0.00 | 94 | 1010.9 |
| 20260502100335 | 11 | 276 | 1.6 | 3.2 | 0.00 | 0.10 | 0.00 | 94 | 1010.9 |
| 20260502091322 | 11 | 321 | 1.6 | 3.2 | 0.00 | 0.08 | 0.00 | 97 | 1010.9 |
| 20260502090823 | 11 | 333 | 1.6 | 3.2 | 0.00 | 0.08 | 0.00 | 97 | 1010.9 |
| 20260502090307 | 11 | 274 | 1.6 | 3.2 | 0.00 | 0.08 | 0.00 | 97 | 1010.9 |
| 20260502071220 | 11 | 322 | 1.6 | 3.2 | 0.00 | 0.08 | 0.00 | 98 | 1010.4 |
| 20260502070722 | 11 | 326 | 1.6 | 3.2 | 0.00 | 0.08 | 0.00 | 98 | 1010.5 |
| 20260502070222 | 10 | 330 | 1.6 | 3.2 | 0.00 | 0.08 | 0.00 | 98 | 1010.6 |
| 20260502065722 | 10 | 322 | 1.6 | 1.6 | 0.00 | 0.08 | 0.00 | 98 | 1010.7 |
| 20260502065222 | 10 | 327 | 1.6 | 3.2 | 0.00 | 0.08 | 0.00 | 98 | 1010.7 |
| 20260502064722 | 10 | 174 | 1.6 | 3.2 | 0.00 | 0.08 | 0.00 | 98 | 1010.8 |
| 20260502064222 | 10 | 329 | 1.6 | 1.6 | 0.00 | 0.08 | 0.00 | 98 | 1010.7 |
| 20260502063723 | 10 | 321 | 0.0 | 1.6 | 0.00 | 0.08 | 0.00 | 98 | 1010.7 |
| 20260502063222 | 10 | 304 | 1.6 | 3.2 | 0.00 | 0.08 | 0.00 | 98 | 1010.7 |
| 20260502062723 | 10 | 330 | 1.6 | 3.2 | 0.00 | 0.08 | 0.00 | 98 | 1010.8 |
| 20260502062210 | 10 | 318 | 1.6 | 3.2 | 0.00 | 0.08 | 0.00 | 98 | 1010.9 |
| 20260502061720 | 10 | 0 | 0.0 | 3.2 | 0.00 | 0.08 | 0.00 | 98 | 1010.9 |
| 20260502061709 | 10 | 281 | 1.6 | 1.6 | 0.00 | 0.08 | 0.00 | 98 | 1010.9 |
| 20260502061314 | 10 | 0 | 0.0 | 3.2 | 0.00 | 0.08 | 0.00 | 98 | 1010.9 |
| 20260502060706 | 10 | 306 | 1.6 | 3.2 | 0.00 | 0.08 | 0.00 | 98 | 1010.9 |
| 20260502060421 | 10 | 314 | 1.6 | 3.2 | 0.00 | 0.08 | 0.00 | 98 | 1011.0 |
| 20260502060300 | 10 | 314 | 1.6 | 3.2 | 0.00 | 0.08 | 0.00 | 98 | 1011.0 |
| 20260502055654 | 10 | 278 | 1.6 | 3.2 | 0.00 | 0.08 | 0.00 | 98 | 1011.0 |
| 20260502055152 | 10 | 329 | 1.6 | 3.2 | 0.00 | 0.08 | 0.00 | 97 | 1011.1 |
| 20260502054648 | 10 | 316 | 1.6 | 3.2 | 0.00 | 0.08 | 0.00 | 97 | 1011.2 |
| 20260502054149 | 10 | 325 | 1.6 | 3.2 | 0.00 | 0.08 | 0.00 | 97 | 1011.1 |
| 20260502053650 | 10 | 339 | 1.6 | 3.2 | 0.00 | 0.08 | 0.00 | 97 | 1011.2 |
| 20260502053150 | 10 | 332 | 1.6 | 3.2 | 0.00 | 0.08 | 0.00 | 97 | 1011.2 |
| 20260502052649 | 10 | 306 | 1.6 | 3.2 | 0.00 | 0.08 | 0.00 | 97 | 1011.2 |
| 20260502052148 | 10 | 344 | 1.6 | 3.2 | 0.00 | 0.08 | 0.00 | 97 | 1011.3 |
| 20260502051651 | 10 | 337 | 1.6 | 3.2 | 0.00 | 0.08 | 0.00 | 97 | 1011.4 |
| 20260502051415 | 10 | 345 | 1.6 | 3.2 | 0.00 | 0.08 | 0.00 | 97 | 1011.4 |
| 20260502051255 | 10 | 345 | 1.6 | 3.2 | 0.00 | 0.08 | 0.00 | 97 | 1011.4 |
| 20260502050650 | 10 | 313 | 1.6 | 3.2 | 0.00 | 0.08 | 0.00 | 97 | 1011.4 |
| 20260502050150 | 10 | 315 | 1.6 | 3.2 | 0.00 | 0.08 | 0.00 | 97 | 1011.4 |
| 20260502045649 | 10 | 333 | 1.6 | 3.2 | 0.00 | 0.08 | 0.00 | 97 | 1011.5 |
| 20260502045147 | 10 | 336 | 1.6 | 3.2 | 0.00 | 0.08 | 0.00 | 97 | 1011.6 |
| 20260502044644 | 10 | 338 | 1.6 | 3.2 | 0.00 | 0.08 | 0.00 | 97 | 1011.6 |
| 20260502044144 | 10 | 281 | 0.0 | 3.2 | 0.00 | 0.08 | 0.00 | 97 | 1011.6 |
| 20260502043645 | 10 | 0 | 1.6 | 3.2 | 0.00 | 0.08 | 0.00 | 97 | 1011.7 |
| 20260502043142 | 10 | 318 | 1.6 | 3.2 | 0.00 | 0.08 | 0.00 | 97 | 1011.8 |
| 20260502042642 | 10 | 317 | 1.6 | 3.2 | 0.00 | 0.08 | 0.00 | 97 | 1011.8 |
| 20260502042143 | 10 | 322 | 1.6 | 3.2 | 0.00 | 0.08 | 0.00 | 97 | 1011.8 |
| 20260502041911 | 10 | 329 | 1.6 | 3.2 | 0.00 | 0.08 | 0.00 | 97 | 1011.7 |
| 20260502041643 | 10 | 329 | 1.6 | 3.2 | 0.00 | 0.08 | 0.00 | 97 | 1011.7 |
| 20260502041142 | 10 | 322 | 1.6 | 3.2 | 0.00 | 0.08 | 0.00 | 97 | 1011.6 |
| 20260502040643 | 10 | 358 | 1.6 | 3.2 | 0.00 | 0.08 | 0.00 | 97 | 1011.6 |
| 20260502040139 | 10 | 313 | 1.6 | 3.2 | 0.00 | 0.08 | 0.00 | 97 | 1011.7 |
| 20260502035640 | 10 | 348 | 1.6 | 3.2 | 0.00 | 0.08 | 0.08 | 97 | 1011.7 |
| 20260502035140 | 10 | 331 | 1.6 | 3.2 | 0.00 | 0.08 | 0.08 | 97 | 1011.7 |
| 20260502034640 | 10 | 344 | 1.6 | 3.2 | 0.00 | 0.08 | 0.08 | 97 | 1011.7 |
| 20260502034405 | 10 | 0 | 1.6 | 3.2 | 0.00 | 0.08 | 0.08 | 97 | 1011.8 |
| 20260502034244 | 10 | 0 | 1.6 | 3.2 | 0.00 | 0.08 | 0.08 | 97 | 1011.8 |
| 20260502033636 | 10 | 310 | 1.6 | 3.2 | 0.00 | 0.08 | 0.08 | 97 | 1012.0 |
| 20260502033137 | 10 | 0 | 1.6 | 3.2 | 0.00 | 0.08 | 0.08 | 96 | 1011.9 |
| 20260502032856 | 10 | 333 | 1.6 | 3.2 | 0.00 | 0.08 | 0.08 | 96 | 1012.0 |
| 20260502032738 | 10 | 333 | 1.6 | 3.2 | 0.00 | 0.08 | 0.08 | 96 | 1012.0 |
| 20260502032134 | 10 | 273 | 1.6 | 3.2 | 0.00 | 0.08 | 0.08 | 96 | 1012.1 |
| 20260502031634 | 10 | 271 | 1.6 | 3.2 | 0.00 | 0.08 | 0.08 | 96 | 1012.2 |
| 20260502031134 | 10 | 354 | 1.6 | 4.8 | 0.00 | 0.08 | 0.08 | 96 | 1012.3 |
| 20260502031126 | 10 | 2 | 1.6 | 4.8 | 0.00 | 0.08 | 0.08 | 96 | 1012.2 |
| 20260502030739 | 10 | 2 | 1.6 | 4.8 | 0.00 | 0.08 | 0.08 | 96 | 1012.2 |
| 20260502030356 | 10 | 236 | 1.6 | 4.8 | 0.00 | 0.08 | 0.08 | 96 | 1012.3 |
| 20260502030239 | 10 | 236 | 1.6 | 4.8 | 0.00 | 0.08 | 0.08 | 96 | 1012.3 |
| 20260502025629 | 10 | 323 | 1.6 | 6.4 | 0.00 | 0.08 | 0.08 | 96 | 1012.2 |
| 20260502025127 | 10 | 0 | 1.6 | 6.4 | 0.00 | 0.08 | 0.08 | 96 | 1012.4 |
| 20260502024625 | 10 | 309 | 1.6 | 3.2 | 0.00 | 0.08 | 0.08 | 96 | 1012.4 |
| 20260502024126 | 10 | 272 | 1.6 | 12.9 | 0.00 | 0.08 | 0.08 | 95 | 1012.4 |
| 20260502023625 | 10 | 345 | 1.6 | 12.9 | 0.00 | 0.08 | 0.08 | 95 | 1012.4 |
| 20260502023127 | 10 | 355 | 1.6 | 4.8 | 0.00 | 0.08 | 0.08 | 95 | 1012.4 |
| 20260502022625 | 10 | 335 | 1.6 | 4.8 | 0.00 | 0.08 | 0.08 | 95 | 1012.3 |
| 20260502022351 | 10 | 305 | 1.6 | 3.2 | 0.00 | 0.08 | 0.08 | 95 | 1012.3 |
| 20260502022232 | 10 | 305 | 1.6 | 3.2 | 0.00 | 0.08 | 0.08 | 95 | 1012.3 |
| 20260502021626 | 10 | 288 | 1.6 | 3.2 | 0.00 | 0.08 | 0.08 | 95 | 1012.4 |
| 20260502021126 | 10 | 288 | 1.6 | 3.2 | 0.00 | 0.08 | 0.08 | 95 | 1012.4 |
| 20260502020623 | 10 | 328 | 1.6 | 3.2 | 0.00 | 0.08 | 0.08 | 95 | 1012.4 |
| 20260502020125 | 10 | 283 | 1.6 | 3.2 | 0.00 | 0.08 | 0.08 | 94 | 1012.3 |
| 20260502015625 | 10 | 310 | 1.6 | 3.2 | 0.00 | 0.08 | 0.08 | 94 | 1012.3 |
| 20260502015125 | 10 | 312 | 1.6 | 3.2 | 0.00 | 0.08 | 0.08 | 94 | 1012.2 |
| 20260502014623 | 10 | 339 | 1.6 | 3.2 | 0.00 | 0.08 | 0.08 | 94 | 1012.2 |
| 20260502014122 | 10 | 282 | 1.6 | 3.2 | 0.00 | 0.08 | 0.08 | 94 | 1012.3 |
| 20260502013617 | 10 | 309 | 1.6 | 3.2 | 0.00 | 0.08 | 0.08 | 94 | 1012.3 |
| 20260502013116 | 10 | 189 | 0.0 | 3.2 | 0.00 | 0.08 | 0.08 | 93 | 1012.4 |
| 20260502012612 | 10 | 314 | 1.6 | 3.2 | 0.00 | 0.08 | 0.08 | 92 | 1012.5 |
| 20260502012112 | 10 | 295 | 1.6 | 3.2 | 0.00 | 0.08 | 0.08 | 92 | 1012.3 |
| 20260502011612 | 11 | 124 | 1.6 | 3.2 | 0.00 | 0.08 | 0.08 | 92 | 1012.2 |
| 20260502011112 | 11 | 286 | 1.6 | 3.2 | 0.00 | 0.08 | 0.08 | 91 | 1012.1 |
| 20260502010612 | 11 | 280 | 1.6 | 3.2 | 0.00 | 0.08 | 0.08 | 90 | 1012.1 |